Regional Weather Roundup
Issued by NWS

Home | Current Version | Previous Version | Text Only | Print | Product List | Glossary On
Versions: 1 2 3 4 5 6 7 8 9 10 11 12 13 14 15 16 17 18 19 20 21 22 23 24 25 26 27 28
000
ASUS44 KLIX 090313
RWRLA
LOUISIANA WEATHER ROUNDUP
NATIONAL WEATHER SERVICE NEW ORLEANS LA
900 PM CST THU DEC 08 2016

NOTE: "FAIR" INDICATES FEW OR NO CLOUDS BELOW 12,000 FEET WITH NO
      SIGNIFICANT WEATHER AND/OR OBSTRUCTIONS TO VISIBILITY.
      SKY/WX - SKY CONDITION AND SIGNIFICANT WEATHER.
      TMP - AIR TEMPERATURE.    DP   - DEWPOINT TEMPERATURE.
      RH  - RELATIVE HUMIDITY.  PRES - PRESSURE.
      HX  - HEAT INDEX.         WCI  - WIND CHILL INDEX.

*  THESE STATIONS ARE NOT NWS OR FAA STATIONS AND ARE NOT UNDER
   NWS QUALITY CONTROL.

LAZ040-048-061>063-065-066-069-090400-
SOUTHEAST LOUISIANA

CITY           SKY/WX    TMP DP  RH WIND       PRES   REMARKS
N.O. AUDUBON   NOT AVBL
N.O. INTL ARPT MOCLDY    49  31  49 N17       30.44R
N.O. LAKEFRONT CLOUDY    50  33  52 NE25G32   30.44S
N.O. DOWNTOWN*   N/A     50  28  42 N10G17    30.44R
RESERVE*       FAIR      49  30  47 N15G22    30.45R
SLIDELL        MOCLDY    46  29  51 N12       30.43S
BATON ROUGE    CLOUDY    44  30  57 N10       30.49R
BOOTHVILLE     CLOUDY    50  38  63 N15G24    30.39R
BELLE CHASSE   CLOUDY    50  31  48 NE16G23   30.42R
BOGALUSA*      FAIR      46  30  54 NE9       30.48R
GALLIANO*      LGT RAIN  51  32  47 NE14G21   30.41R
NEW ROADS*     FAIR      42  31  65 N13G21    30.51R
GONZALES*      FAIR      46  31  57 N10       30.46R
HAMMOND*       CLOUDY    45  28  53 N9        30.47R
HOUMA*         CLOUDY    49  37  63 N12G21    30.43R
PORT FOURCHON* CLOUDY    54  39  58 NE23G33   30.38F

$$

LAZ041-044-053-054-090400-
SOUTHWEST LOUISIANA

CITY           SKY/WX    TMP DP  RH WIND       PRES   REMARKS
LAKE CHARLES   CLOUDY    45  31  58 N14G23    30.50R
LAFAYETTE      PTCLDY    45  32  60 NE17      30.47F
PATTERSON      CLOUDY   N/A N/A N/A N14       30.43S
SALT POINT     NOT AVBL
NEW IBERIA     CLOUDY    45  31  58 N14G25    30.47R
CHENAULT AIRPK NOT AVBL

$$

LAZ027-028-090400-
CENTRAL LOUISIANA

CITY           SKY/WX    TMP DP  RH WIND       PRES   REMARKS
FORT POLK      CLOUDY    40  33  74 N9        30.53R WCI  35
ALEXANDRIA INT CLOUDY    41  32  70 N5        30.54R
ALEXANDRIA     PTCLDY    41  28  60 NE5       30.54R

$$

LAZ001-002-090400-
NORTHWEST LOUISIANA

CITY           SKY/WX    TMP DP  RH WIND       PRES   REMARKS
SHREVEPORT     CLOUDY    38  24  57 N8        30.60R WCI  32
BARKSDALE AFB  CLOUDY    37  23  56 N9        30.60R WCI  30
DTN SHREVEPORT PTCLDY    39  24  55 N8        30.60S WCI  33

$$

LAZ014-016-090400-
NORTHEAST LOUISIANA

CITY           SKY/WX    TMP DP  RH WIND       PRES   REMARKS
MONROE         MOCLDY    39  24  55 NE6       30.59R WCI  35
TALLULAH       PTCLDY    37  23  56 N13       30.57R WCI  29

$$





USA.gov is the U.S. government's official web portal to all federal, state and local government web resources and services.